Total_Precipitation_Accumulation
0.06 0.06 0.07 0.07 0.06 0.06 0.07 0.08 0.07 0.07 0.08 0.08 0.08 0.09 0.11 0.10 0.07 0.06 0.05 0.07 0.07 0.07 0.10 0.06 0.08 0.06 0.02 0.03 0.01 0.00 0.00 0.00 0.00 0.00 0.00 0.00 0.00 0.00 0.00 0.00 0.00 0.00 0.00 0.00 0.00 0.00 0.01 0.00 0.00 0.00 0.00 0.00 0.00 0.17 0.26 0.11 0.48 1.18 2.79 3.87 4.10 3.92 3.89 2.11 2.89 2.35 2.71 4.05 2.49 2.22 2.36 3.01 2.47 1.66 1.87 2.30 1.85 2.00 1.06 1.43 0.61 0.80 0.78 0.98 1.27 1.22 1.00 0.34
0.06 0.07 0.06 0.05 0.05 0.05 0.06 0.06 0.06 0.07 0.07 0.08 0.08 0.08 0.09 0.07 0.07 0.05 0.07 0.07 0.08 0.08 0.07 0.10 0.07 0.05 0.05 0.01 0.00 0.00 0.02 0.00 0.00 0.00 0.00 0.00 0.00 0.00 0.00 0.00 0.00 0.00 0.00 0.00 0.00 0.00 0.00 0.00 0.00 0.00 0.00 0.00 0.00 0.08 0.05 0.93 0.25 0.77 1.71 3.13 4.14 2.88 2.72 1.86 1.99 1.47 3.36 3.56 2.40 2.92 2.27 2.90 2.53 2.24 1.21 2.18 1.71 1.80 1.35 1.21 1.24 1.10 0.80 1.07 1.05 1.39 1.52 0.74
0.07 0.06 0.06 0.04 0.04 0.04 0.04 0.05 0.05 0.06 0.07 0.07 0.07 0.08 0.07 0.07 0.06 0.08 0.07 0.08 0.08 0.07 0.09 0.08 0.07 0.04 0.01 0.01 0.00 0.01 0.02 0.00 0.00 0.00 0.00 0.00 0.00 0.00 0.00 0.00 0.00 0.00 0.00 0.00 0.00 0.00 0.00 0.00 0.00 0.00 0.00 0.00 0.00 0.07 0.16 0.58 0.55 0.59 0.95 2.14 1.78 1.34 2.02 2.04 1.78 1.39 1.59 1.94 2.72 2.02 1.70 2.93 2.08 2.01 1.60 2.43 1.33 1.10 1.88 1.92 1.35 1.20 0.88 0.92 0.98 0.91 1.14 1.43
0.06 0.06 0.04 0.03 0.04 0.04 0.04 0.04 0.04 0.05 0.07 0.08 0.07 0.07 0.07 0.07 0.07 0.08 0.09 0.08 0.05 0.06 0.07 0.09 0.05 0.02 0.01 0.00 0.00 0.01 0.00 0.00 0.00 0.00 0.00 0.00 0.00 0.00 0.00 0.00 0.00 0.00 0.00 0.00 0.00 0.00 0.00 0.00 0.00 0.00 0.00 0.00 0.01 0.03 0.01 0.03 0.91 0.57 0.72 1.82 1.03 0.92 2.23 1.77 1.85 1.67 1.28 1.86 2.18 2.00 1.38 1.94 2.08 2.74 2.09 2.11 1.85 1.84 2.07 1.82 1.18 1.29 0.85 0.75 0.92 0.83 1.20 1.20
0.05 0.04 0.04 0.03 0.03 0.04 0.04 0.04 0.04 0.06 0.07 0.08 0.07 0.08 0.07 0.07 0.08 0.08 0.08 0.06 0.06 0.04 0.08 0.06 0.03 0.01 0.00 0.00 0.00 0.01 0.00 0.00 0.00 0.00 0.00 0.00 0.00 0.00 0.00 0.00 0.00 0.00 0.00 0.00 0.00 0.00 0.00 0.00 0.00 0.00 0.00 0.01 0.00 0.01 0.00 0.01 0.01 0.04 0.48 0.66 0.89 1.08 1.95 1.17 1.34 0.99 0.99 1.63 2.02 1.91 2.02 2.80 1.34 1.93 2.37 3.32 4.59 2.31 2.90 0.95 0.77 0.75 0.95 0.88 0.60 0.55 1.01 1.21
0.05 0.04 0.03 0.03 0.03 0.04 0.04 0.04 0.05 0.07 0.07 0.08 0.08 0.07 0.07 0.07 0.07 0.07 0.06 0.07 0.05 0.06 0.04 0.04 0.03 0.00 0.00 0.00 0.01 0.01 0.00 0.00 0.00 0.00 0.00 0.00 0.00 0.00 0.00 0.00 0.00 0.00 0.00 0.00 0.00 0.00 0.00 0.00 0.00 0.00 0.00 0.00 0.03 0.01 0.01 0.00 0.03 0.60 0.24 0.21 0.25 0.52 0.96 1.26 1.34 0.79 1.03 1.64 1.58 2.31 2.75 1.70 2.23 3.24 2.12 2.03 3.59 2.18 1.35 0.71 0.39 0.27 0.45 0.65 1.00 0.91 0.96 1.86
0.04 0.04 0.03 0.03 0.03 0.04 0.04 0.05 0.06 0.05 0.07 0.08 0.08 0.07 0.07 0.07 0.06 0.06 0.07 0.05 0.05 0.04 0.04 0.02 0.01 0.01 0.00 0.00 0.00 0.00 0.00 0.00 0.00 0.00 0.00 0.00 0.00 0.00 0.00 0.00 0.00 0.00 0.00 0.00 0.00 0.00 0.00 0.00 0.00 0.00 0.00 0.00 0.00 0.00 0.01 0.00 0.03 0.01 0.51 0.14 0.23 0.22 0.64 1.00 1.91 1.59 2.47 2.65 2.61 2.56 1.55 2.04 2.51 2.72 1.92 2.26 1.25 1.00 0.91 0.57 0.57 0.22 0.49 0.36 0.57 0.77 1.44 1.31
0.05 0.03 0.02 0.03 0.04 0.04 0.04 0.04 0.04 0.06 0.05 0.06 0.07 0.08 0.06 0.06 0.06 0.06 0.05 0.04 0.06 0.04 0.04 0.02 0.01 0.00 0.00 0.00 0.00 0.00 0.00 0.00 0.00 0.00 0.00 0.00 0.00 0.00 0.00 0.00 0.00 0.00 0.00 0.00 0.00 0.00 0.00 0.00 0.00 0.00 0.00 0.00 0.00 0.00 0.01 0.03 0.01 0.43 0.81 0.51 0.41 0.24 0.53 0.98 1.76 3.09 2.77 2.82 3.07 2.64 1.93 2.26 2.52 2.77 1.94 2.81 1.70 0.86 1.17 0.72 0.64 0.47 0.49 0.53 0.51 0.70 0.88 1.55
0.03 0.03 0.02 0.03 0.04 0.04 0.04 0.04 0.05 0.04 0.05 0.05 0.05 0.06 0.06 0.06 0.06 0.04 0.05 0.05 0.04 0.04 0.02 0.01 0.01 0.00 0.02 0.01 0.00 0.00 0.00 0.00 0.00 0.00 0.00 0.00 0.00 0.00 0.00 0.00 0.00 0.00 0.00 0.00 0.00 0.00 0.00 0.00 0.00 0.00 0.01 0.00 0.00 0.00 0.00 0.06 0.90 0.09 0.12 0.25 0.54 0.46 0.44 1.34 1.41 1.88 1.98 2.95 2.95 2.60 2.52 2.65 2.00 2.17 2.46 2.65 1.35 1.10 0.72 0.59 0.50 0.32 0.14 0.22 0.62 1.00 1.45 1.43
0.02 0.02 0.02 0.03 0.03 0.04 0.04 0.04 0.04 0.05 0.05 0.05 0.05 0.05 0.07 0.05 0.05 0.05 0.03 0.03 0.03 0.02 0.01 0.01 0.00 0.01 0.00 0.00 0.00 0.00 0.00 0.00 0.00 0.00 0.00 0.00 0.00 0.00 0.00 0.00 0.00 0.00 0.00 0.00 0.00 0.00 0.00 0.00 0.00 0.00 0.00 0.00 0.00 0.00 0.00 0.07 0.37 0.01 0.06 0.17 0.35 0.64 0.81 0.76 1.47 1.44 2.18 3.09 2.81 3.05 2.57 2.38 2.49 1.74 3.44 1.43 1.29 1.01 0.68 0.62 0.62 0.53 0.50 0.36 0.45 0.63 1.28 1.92
0.02 0.02 0.02 0.02 0.03 0.03 0.04 0.04 0.04 0.05 0.06 0.04 0.04 0.05 0.04 0.05 0.03 0.03 0.02 0.01 0.01 0.00 0.01 0.01 0.00 0.01 0.00 0.00 0.00 0.00 0.00 0.00 0.00 0.00 0.00 0.00 0.00 0.00 0.00 0.00 0.00 0.00 0.00 0.00 0.00 0.00 0.00 0.00 0.00 0.00 0.00 0.00 0.00 0.02 0.00 0.11 0.01 0.04 0.26 0.16 0.34 0.84 1.16 1.09 1.26 1.53 2.13 3.31 3.39 2.72 3.11 2.50 2.44 1.51 3.42 1.72 0.86 1.09 1.07 0.72 0.51 1.23 0.90 0.47 0.45 0.62 1.53 1.76
0.01 0.02 0.02 0.01 0.02 0.03 0.03 0.03 0.04 0.04 0.05 0.04 0.04 0.03 0.03 0.03 0.02 0.01 0.01 0.01 0.00 0.01 0.01 0.00 0.01 0.00 0.00 0.00 0.00 0.00 0.00 0.00 0.00 0.00 0.00 0.00 0.00 0.00 0.00 0.00 0.00 0.00 0.00 0.00 0.00 0.00 0.00 0.00 0.00 0.00 0.00 0.00 0.00 0.00 0.12 0.00 0.06 0.32 0.22 0.97 0.65 0.65 1.13 1.29 1.44 2.32 1.73 2.54 3.61 3.93 3.34 2.80 1.70 2.43 1.67 0.91 1.05 1.55 1.26 1.07 1.13 0.54 0.79 0.38 0.40 0.62 1.11 1.35
0.01 0.01 0.02 0.01 0.02 0.03 0.03 0.03 0.04 0.05 0.04 0.04 0.03 0.02 0.02 0.02 0.01 0.01 0.01 0.00 0.00 0.00 0.02 0.01 0.01 0.00 0.00 0.00 0.00 0.00 0.00 0.00 0.00 0.00 0.00 0.00 0.00 0.00 0.00 0.00 0.00 0.00 0.00 0.00 0.00 0.00 0.00 0.00 0.00 0.00 0.00 0.00 0.00 0.03 0.18 0.16 0.05 0.16 0.60 1.09 0.67 1.03 1.55 1.32 1.76 2.24 1.62 2.21 2.28 3.21 3.85 2.92 2.72 1.98 1.39 1.08 1.53 1.45 1.59 1.73 1.08 0.91 0.66 0.80 0.66 0.57 1.04 1.08
0.02 0.01 0.01 0.02 0.01 0.02 0.03 0.03 0.03 0.05 0.04 0.03 0.02 0.02 0.01 0.01 0.00 0.00 0.00 0.00 0.00 0.00 0.00 0.00 0.00 0.00 0.00 0.00 0.00 0.00 0.00 0.00 0.00 0.00 0.00 0.00 0.00 0.00 0.00 0.00 0.00 0.00 0.00 0.00 0.00 0.00 0.00 0.00 0.00 0.00 0.00 0.00 0.00 0.00 0.01 0.01 0.04 0.37 1.01 0.54 1.51 1.10 2.09 0.76 1.41 1.95 2.41 2.17 2.77 1.39 3.62 4.00 2.88 1.68 1.63 1.68 1.59 1.57 1.48 1.44 1.11 1.44 1.28 0.96 0.70 0.74 1.02 1.12
0.02 0.01 0.01 0.01 0.02 0.03 0.03 0.03 0.03 0.04 0.04 0.02 0.01 0.01 0.01 0.00 0.00 0.00 0.00 0.00 0.00 0.00 0.01 0.01 0.00 0.00 0.00 0.00 0.00 0.00 0.00 0.00 0.00 0.00 0.00 0.00 0.00 0.00 0.00 0.00 0.00 0.00 0.00 0.00 0.00 0.00 0.00 0.00 0.00 0.00 0.00 0.00 0.00 0.00 0.00 0.04 0.35 0.33 0.38 0.87 0.54 0.35 1.87 1.16 0.85 0.80 1.79 1.55 1.83 1.24 3.02 3.03 2.58 2.52 1.32 1.18 1.65 2.35 2.13 1.45 1.49 1.17 0.91 1.47 1.72 0.94 1.09 1.18
0.01 0.02 0.01 0.02 0.03 0.02 0.02 0.02 0.02 0.02 0.03 0.02 0.01 0.01 0.00 0.00 0.00 0.00 0.00 0.00 0.00 0.00 0.01 0.00 0.00 0.00 0.00 0.00 0.00 0.00 0.00 0.00 0.00 0.00 0.00 0.00 0.00 0.00 0.00 0.00 0.00 0.00 0.00 0.00 0.00 0.00 0.00 0.00 0.00 0.00 0.00 0.00 0.00 0.00 0.18 0.15 0.66 0.47 0.14 0.29 0.32 0.44 1.03 1.38 0.72 0.97 1.40 0.84 1.59 1.73 3.02 2.50 3.10 2.54 2.14 1.64 1.99 1.92 2.21 1.65 1.08 0.97 0.97 1.06 0.94 1.26 0.69 0.86
0.00 0.00 0.01 0.01 0.02 0.03 0.02 0.01 0.02 0.03 0.02 0.02 0.00 0.00 0.00 0.00 0.00 0.00 0.00 0.00 0.01 0.00 0.00 0.00 0.00 0.00 0.00 0.00 0.00 0.00 0.00 0.00 0.00 0.00 0.00 0.00 0.00 0.00 0.00 0.00 0.00 0.00 0.00 0.00 0.00 0.00 0.00 0.00 0.00 0.00 0.00 0.00 0.00 0.00 0.06 0.21 0.14 0.13 0.08 0.15 0.16 0.37 0.37 1.21 0.81 1.25 1.11 0.82 1.91 1.41 2.05 2.47 1.86 1.59 1.70 1.48 1.71 1.84 2.35 1.86 1.29 0.98 1.20 0.60 1.11 0.46 0.61 0.63
0.00 0.00 0.00 0.01 0.02 0.03 0.03 0.01 0.02 0.02 0.02 0.01 0.00 0.00 0.00 0.00 0.00 0.00 0.01 0.00 0.00 0.00 0.00 0.00 0.00 0.00 0.00 0.00 0.00 0.00 0.00 0.00 0.00 0.00 0.00 0.00 0.00 0.00 0.00 0.00 0.00 0.00 0.00 0.00 0.00 0.00 0.00 0.00 0.00 0.00 0.00 0.00 0.00 0.00 0.04 0.25 0.07 0.05 0.07 0.12 0.37 0.54 0.32 0.92 0.72 0.85 0.68 0.78 1.03 1.11 1.40 2.50 2.13 1.64 1.20 1.10 1.32 1.69 1.59 1.83 1.75 1.17 0.87 0.53 1.20 1.25 1.35 1.32
0.01 0.00 0.00 0.01 0.02 0.04 0.02 0.02 0.02 0.02 0.02 0.00 0.00 0.00 0.00 0.00 0.00 0.00 0.00 0.00 0.00 0.00 0.00 0.00 0.00 0.00 0.00 0.00 0.00 0.00 0.00 0.00 0.00 0.00 0.00 0.00 0.00 0.00 0.00 0.00 0.00 0.00 0.00 0.00 0.00 0.00 0.00 0.00 0.00 0.00 0.00 0.00 0.00 0.01 0.01 0.11 0.01 0.02 0.03 0.19 0.15 0.32 0.87 0.60 0.61 0.25 0.17 0.70 1.37 1.07 1.48 2.17 1.93 1.69 1.48 1.50 1.04 1.49 2.58 1.99 2.10 1.09 1.15 0.61 0.86 1.19 0.69 1.26
0.01 0.01 0.00 0.00 0.01 0.03 0.03 0.02 0.02 0.02 0.03 0.00 0.00 0.00 0.00 0.00 0.00 0.00 0.00 0.00 0.00 0.00 0.00 0.00 0.00 0.00 0.00 0.00 0.00 0.00 0.00 0.00 0.00 0.00 0.00 0.00 0.00 0.00 0.00 0.00 0.00 0.00 0.00 0.00 0.00 0.00 0.00 0.00 0.00 0.00 0.00 0.00 0.00 0.00 0.00 0.00 0.01 0.01 0.00 0.07 0.27 0.44 0.35 0.47 0.56 0.34 0.50 0.83 1.10 1.09 0.96 1.47 2.00 1.45 1.49 1.28 1.27 2.14 2.37 1.45 1.59 1.42 1.19 0.93 0.85 0.84 0.89 0.87
0.00 0.01 0.01 0.00 0.01 0.02 0.03 0.01 0.01 0.02 0.05 0.00 0.00 0.00 0.00 0.00 0.00 0.00 0.00 0.00 0.00 0.00 0.00 0.00 0.00 0.00 0.00 0.00 0.00 0.00 0.00 0.00 0.00 0.00 0.00 0.00 0.00 0.00 0.00 0.00 0.00 0.00 0.00 0.00 0.00 0.00 0.00 0.00 0.00 0.00 0.00 0.00 0.00 0.00 0.00 0.00 0.00 0.01 0.03 0.11 0.49 0.21 0.57 0.55 0.56 0.87 1.21 1.38 1.79 0.70 1.27 1.29 1.89 2.11 1.50 1.92 1.70 1.60 2.10 2.45 1.74 1.44 0.97 0.98 1.41 0.90 1.24 1.27
0.00 0.00 0.00 0.00 0.01 0.01 0.02 0.01 0.01 0.03 0.03 0.00 0.00 0.00 0.00 0.00 0.00 0.00 0.00 0.00 0.00 0.00 0.00 0.00 0.00 0.00 0.00 0.00 0.00 0.00 0.00 0.00 0.00 0.00 0.00 0.00 0.00 0.00 0.00 0.00 0.00 0.00 0.00 0.00 0.00 0.00 0.00 0.00 0.00 0.00 0.00 0.00 0.00 0.00 0.00 0.00 0.00 0.00 0.03 0.28 0.25 0.54 0.56 0.49 0.54 0.52 1.92 1.18 1.94 1.23 1.42 1.37 1.62 2.09 2.54 1.40 1.00 0.94 1.23 1.84 2.66 1.59 1.71 1.09 1.11 1.18 1.95 1.08
0.01 0.00 0.00 0.01 0.01 0.01 0.01 0.01 0.01 0.03 0.00 0.00 0.00 0.00 0.00 0.00 0.00 0.00 0.00 0.00 0.00 0.00 0.00 0.00 0.00 0.00 0.00 0.00 0.00 0.00 0.00 0.00 0.00 0.00 0.00 0.00 0.00 0.00 0.00 0.00 0.00 0.00 0.00 0.00 0.00 0.00 0.00 0.00 0.00 0.00 0.00 0.00 0.00 0.00 0.00 0.00 0.00 0.00 0.04 0.04 0.21 0.16 0.22 0.73 0.70 0.21 0.80 0.50 0.91 1.11 1.41 2.04 2.49 2.37 2.09 2.16 1.10 1.82 1.29 1.74 2.74 2.91 2.94 1.07 0.62 1.12 0.93 1.22
0.01 0.01 0.00 0.01 0.01 0.00 0.01 0.00 0.02 0.02 0.00 0.00 0.00 0.00 0.00 0.00 0.00 0.00 0.00 0.00 0.00 0.00 0.00 0.00 0.00 0.00 0.00 0.00 0.00 0.00 0.00 0.00 0.00 0.00 0.00 0.00 0.00 0.00 0.00 0.00 0.00 0.00 0.00 0.00 0.00 0.00 0.00 0.00 0.00 0.00 0.00 0.00 0.00 0.00 0.00 0.00 0.00 0.00 0.01 0.02 0.05 0.05 0.12 0.04 0.49 0.34 0.75 0.60 0.53 1.42 1.17 2.66 2.39 2.20 2.06 2.21 1.95 2.10 1.74 1.64 1.99 1.95 2.19 1.27 1.63 1.35 1.34 1.52
0.01 0.01 0.02 0.01 0.01 0.02 0.00 0.01 0.00 0.00 0.00 0.00 0.00 0.00 0.00 0.00 0.00 0.00 0.00 0.00 0.00 0.00 0.00 0.00 0.00 0.00 0.00 0.00 0.00 0.00 0.00 0.00 0.00 0.00 0.00 0.00 0.00 0.00 0.00 0.00 0.00 0.00 0.00 0.00 0.00 0.00 0.00 0.00 0.00 0.00 0.00 0.00 0.00 0.00 0.00 0.00 0.00 0.00 0.00 0.00 0.00 0.01 0.23 0.02 0.13 0.33 0.38 0.81 0.68 0.60 1.08 1.60 1.82 1.38 1.18 1.45 1.72 1.83 1.29 1.04 1.18 1.75 2.41 2.49 1.68 1.25 1.33 1.36
0.01 0.02 0.01 0.02 0.02 0.01 0.02 0.00 0.00 0.00 0.00 0.00 0.00 0.00 0.00 0.00 0.00 0.00 0.00 0.00 0.00 0.00 0.00 0.00 0.00 0.00 0.00 0.00 0.00 0.00 0.00 0.01 0.00 0.00 0.00 0.00 0.00 0.00 0.00 0.00 0.00 0.00 0.00 0.00 0.00 0.00 0.00 0.00 0.00 0.00 0.00 0.00 0.00 0.00 0.00 0.00 0.01 0.00 0.01 0.00 0.00 0.00 0.02 0.12 0.57 1.05 0.24 0.43 1.11 0.46 0.66 1.38 0.92 1.61 1.17 1.00 0.98 1.11 1.80 1.35 1.09 1.53 1.76 1.68 1.69 1.82 1.03 1.46
0.01 0.01 0.03 0.02 0.02 0.02 0.00 0.00 0.00 0.00 0.00 0.00 0.00 0.00 0.00 0.00 0.00 0.00 0.00 0.09 0.03 0.00 0.00 0.00 0.00 0.00 0.00 0.00 0.00 0.00 0.02 0.03 0.00 0.00 0.00 0.00 0.00 0.00 0.00 0.00 0.00 0.00 0.00 0.00 0.00 0.00 0.00 0.00 0.00 0.00 0.00 0.00 0.00 0.00 0.00 0.00 0.00 0.00 0.00 0.00 0.01 0.00 0.05 0.17 0.16 0.20 0.14 0.02 0.53 0.26 0.26 0.49 0.89 0.98 0.63 0.76 0.65 0.70 1.05 1.13 1.33 1.63 1.62 1.63 1.57 1.06 1.19 0.91
0.01 0.01 0.01 0.01 0.01 0.05 0.00 0.00 0.00 0.00 0.00 0.00 0.00 0.00 0.00 0.00 0.00 0.00 0.00 0.15 0.02 0.00 0.00 0.00 0.00 0.00 0.00 0.00 0.00 0.00 0.01 0.00 0.01 0.00 0.00 0.00 0.00 0.00 0.00 0.00 0.00 0.00 0.00 0.00 0.00 0.00 0.00 0.00 0.00 0.00 0.00 0.00 0.00 0.00 0.00 0.00 0.00 0.01 0.00 0.01 0.01 0.00 0.01 0.01 0.01 0.05 0.05 0.22 0.50 0.37 0.37 0.65 0.58 0.68 0.56 0.81 1.20 0.95 0.66 0.89 0.71 1.35 1.09 1.44 1.49 1.06 0.86 0.56
0.01 0.01 0.01 0.01 0.01 0.01 0.02 0.00 0.00 0.00 0.00 0.00 0.00 0.00 0.00 0.00 0.00 0.00 0.05 0.12 0.00 0.00 0.00 0.00 0.00 0.00 0.00 0.00 0.00 0.00 0.00 0.00 0.01 0.00 0.00 0.00 0.00 0.00 0.00 0.00 0.00 0.00 0.00 0.00 0.00 0.00 0.00 0.00 0.00 0.00 0.00 0.00 0.00 0.00 0.00 0.00 0.01 0.00 0.00 0.00 0.02 0.00 0.01 0.06 0.03 0.17 0.32 0.11 0.30 0.47 0.20 0.37 0.78 0.73 1.17 1.30 0.82 0.89 1.00 1.13 0.98 0.93 1.22 1.04 1.17 0.80 0.93 0.57
0.01 0.00 0.02 0.01 0.02 0.01 0.00 0.01 0.00 0.00 0.00 0.00 0.00 0.00 0.00 0.00 0.00 0.11 0.05 0.08 0.00 0.00 0.00 0.00 0.00 0.00 0.00 0.00 0.00 0.00 0.00 0.00 0.00 0.00 0.00 0.00 0.00 0.00 0.00 0.00 0.00 0.00 0.00 0.00 0.00 0.00 0.00 0.00 0.00 0.00 0.00 0.00 0.00 0.00 0.00 0.00 0.00 0.00 0.00 0.02 0.06 0.00 0.02 0.01 0.02 0.13 0.23 0.23 0.28 0.15 0.15 0.05 0.63 0.99 1.43 1.50 0.88 0.42 0.54 0.87 1.13 1.28 1.21 0.99 0.70 1.28 0.68 0.57
0.01 0.00 0.01 0.03 0.00 0.00 0.00 0.00 0.00 0.00 0.00 0.00 0.00 0.00 0.00 0.00 0.03 0.10 0.13 0.00 0.00 0.00 0.00 0.00 0.00 0.00 0.00 0.00 0.00 0.00 0.00 0.00 0.00 0.00 0.00 0.00 0.00 0.00 0.00 0.00 0.00 0.00 0.00 0.00 0.00 0.00 0.00 0.00 0.00 0.00 0.00 0.00 0.00 0.00 0.00 0.00 0.00 0.00 0.00 0.03 0.01 0.06 0.08 0.64 0.88 0.62 0.26 0.20 0.08 0.13 0.04 0.02 0.52 1.18 0.67 0.60 0.49 0.57 0.60 0.85 0.77 0.67 0.72 0.60 0.88 1.50 0.48 0.64
0.00 0.00 0.00 0.01 0.00 0.00 0.00 0.00 0.00 0.00 0.00 0.00 0.00 0.00 0.00 0.24 0.10 0.10 0.07 0.00 0.04 0.00 0.03 0.00 0.00 0.00 0.00 0.00 0.00 0.00 0.00 0.00 0.00 0.00 0.00 0.00 0.00 0.00 0.00 0.04 0.00 0.00 0.00 0.00 0.01 0.00 0.00 0.00 0.00 0.00 0.00 0.00 0.00 0.00 0.00 0.00 0.00 0.00 0.00 0.02 0.08 0.67 0.36 0.51 0.48 0.53 0.27 0.22 0.27 0.03 0.02 0.31 0.30 0.76 0.68 0.48 0.41 0.59 0.64 0.52 0.41 0.42 0.42 0.30 0.52 0.58 0.46 0.38
0.00 0.00 0.01 0.00 0.00 0.00 0.00 0.00 0.00 0.00 0.00 0.00 0.00 0.00 0.02 0.11 0.35 0.09 0.04 0.00 0.04 0.00 0.00 0.00 0.00 0.00 0.00 0.00 0.00 0.00 0.00 0.00 0.00 0.00 0.00 0.00 0.00 0.00 0.00 0.00 0.00 0.00 0.09 0.03 0.00 0.00 0.00 0.00 0.00 0.00 0.00 0.00 0.00 0.00 0.01 0.00 0.00 0.01 0.02 0.06 0.05 0.19 0.56 0.11 0.20 0.09 0.09 0.09 0.08 0.17 0.20 0.26 0.73 0.77 0.49 0.65 0.38 0.45 0.40 0.38 0.29 0.41 0.29 0.25 0.41 0.72 0.71 0.51
0.00 0.00 0.00 0.00 0.00 0.00 0.00 0.00 0.00 0.00 0.00 0.00 0.00 0.01 0.04 0.06 0.10 0.00 0.01 0.00 0.00 0.00 0.00 0.00 0.00 0.00 0.00 0.03 0.00 0.00 0.00 0.00 0.00 0.00 0.00 0.01 0.00 0.02 0.00 0.00 0.00 0.00 0.00 0.00 0.00 0.00 0.02 0.00 0.00 0.00 0.00 0.00 0.00 0.00 0.00 0.02 0.00 0.03 0.04 0.01 0.08 0.02 0.12 0.13 0.08 0.18 0.18 0.37 0.25 0.09 0.10 0.71 0.41 2.66 0.64 0.30 0.39 0.62 0.66 0.63 0.29 0.19 0.30 0.15 0.19 0.20 0.44 0.79
0.01 0.00 0.00 0.00 0.00 0.00 0.00 0.00 0.00 0.00 0.00 0.00 0.00 0.12 0.23 0.10 0.06 0.07 0.03 0.00 0.00 0.00 0.00 0.00 0.00 0.00 0.02 0.00 0.00 0.00 0.00 0.01 0.00 0.00 0.01 0.02 0.05 0.01 0.01 0.00 0.00 0.00 0.00 0.00 0.00 0.00 0.00 0.00 0.00 0.00 0.00 0.00 0.00 0.00 0.00 0.01 0.00 0.00 0.01 0.00 0.02 0.08 0.00 0.07 0.10 0.06 0.13 0.25 0.18 0.34 0.45 0.63 1.08 0.43 0.84 0.32 0.18 0.38 0.45 0.79 0.51 0.29 0.39 0.26 0.25 0.17 0.15 0.22
0.01 0.00 0.00 0.00 0.00 0.00 0.00 0.00 0.00 0.00 0.00 0.00 0.03 0.10 0.23 0.01 0.26 0.00 0.05 0.00 0.00 0.01 0.00 0.00 0.00 0.00 0.00 0.01 0.00 0.01 0.00 0.01 0.00 0.02 0.02 0.01 0.00 0.00 0.00 0.00 0.00 0.00 0.00 0.00 0.01 0.14 0.00 0.02 0.00 0.00 0.00 0.00 0.00 0.00 0.00 0.00 0.11 0.13 0.02 0.03 0.03 0.00 0.00 0.02 0.03 0.01 0.07 0.08 0.15 0.09 0.21 0.61 0.70 0.53 0.41 0.95 0.62 0.50 0.38 0.53 0.73 0.48 0.63 0.54 0.30 0.74 0.39 0.38
0.00 0.00 0.00 0.00 0.00 0.00 0.00 0.00 0.00 0.00 0.00 0.02 0.10 0.23 0.02 0.00 0.02 0.01 0.00 0.00 0.00 0.00 0.00 0.01 0.01 0.01 0.01 0.01 0.01 0.01 0.03 0.00 0.00 0.01 0.09 0.01 0.02 0.00 0.00 0.00 0.00 0.00 0.00 0.00 0.00 0.00 0.00 0.02 0.00 0.00 0.00 0.00 0.00 0.00 0.00 0.00 0.00 0.02 0.03 0.14 0.01 0.00 0.00 0.01 0.16 0.14 0.13 0.21 0.60 0.12 0.51 0.83 0.33 1.87 0.42 0.57 0.88 0.84 0.53 1.09 0.89 0.47 0.66 0.78 0.81 0.25 0.34 0.68
0.00 0.00 0.00 0.00 0.00 0.00 0.00 0.00 0.00 0.00 0.00 0.07 0.08 0.01 0.00 0.01 0.01 0.00 0.00 0.00 0.00 0.00 0.03 0.06 0.00 0.00 0.02 0.00 0.00 0.00 0.00 0.02 0.03 0.01 0.14 0.00 0.08 0.01 0.00 0.00 0.00 0.00 0.00 0.00 0.01 0.03 0.00 0.02 0.00 0.00 0.00 0.00 0.00 0.00 0.00 0.00 0.00 0.00 0.01 0.01 0.03 0.24 0.09 0.04 0.00 0.09 0.16 0.25 0.33 0.21 0.30 0.43 0.43 1.01 0.63 0.52 0.60 0.50 0.69 0.44 0.62 0.56 0.63 0.88 0.97 1.17 0.93 0.85
0.00 0.00 0.00 0.00 0.00 0.00 0.00 0.00 0.00 0.00 0.06 0.17 0.12 0.05 0.02 0.02 0.00 0.00 0.00 0.00 0.00 0.00 0.05 0.05 0.02 0.00 0.00 0.01 0.00 0.00 0.01 0.02 0.00 0.01 0.08 0.01 0.10 0.00 0.00 0.00 0.00 0.00 0.00 0.00 0.00 0.00 0.00 0.02 0.03 0.00 0.00 0.00 0.00 0.00 0.03 0.00 0.00 0.00 0.00 0.04 0.00 0.01 0.05 0.21 0.11 0.33 0.02 0.31 0.06 0.84 0.59 1.13 0.79 0.97 0.46 1.02 0.54 0.66 0.40 0.36 0.49 0.47 0.70 0.52 0.98 0.80 0.64 0.50
0.00 0.00 0.00 0.00 0.00 0.00 0.00 0.00 0.00 0.01 0.04 0.23 0.09 0.07 0.01 0.01 0.00 0.00 0.00 0.00 0.00 0.00 0.02 0.02 0.00 0.01 0.02 0.01 0.00 0.01 0.01 0.01 0.02 0.03 0.00 0.01 0.00 0.00 0.00 0.00 0.00 0.00 0.00 0.00 0.00 0.00 0.01 0.00 0.03 0.01 0.00 0.00 0.06 0.00 0.01 0.00 0.03 0.04 0.01 0.03 0.03 0.01 0.06 0.03 0.04 0.05 0.17 0.32 0.13 0.34 0.85 1.35 1.10 1.38 1.15 1.06 0.99 1.00 0.92 0.51 0.62 0.43 0.54 0.59 0.72 0.94 0.51 0.39
0.00 0.00 0.00 0.00 0.00 0.00 0.00 0.00 0.03 0.03 0.09 0.13 0.01 0.04 0.00 0.01 0.00 0.00 0.00 0.00 0.01 0.00 0.00 0.00 0.00 0.03 0.02 0.00 0.00 0.00 0.01 0.01 0.02 0.04 0.01 0.01 0.00 0.01 0.00 0.00 0.00 0.01 0.00 0.00 0.00 0.00 0.01 0.00 0.04 0.02 0.00 0.03 0.02 0.00 0.00 0.00 0.00 0.06 0.12 0.25 0.06 0.10 0.15 0.09 0.36 0.01 0.03 0.05 0.12 0.21 0.79 0.76 0.88 0.41 0.82 0.68 0.92 0.99 0.49 0.46 0.47 0.51 0.43 0.58 0.64 0.87 0.77 0.53
0.00 0.03 0.00 0.00 0.00 0.00 0.00 0.03 0.02 0.00 0.02 0.06 0.12 0.01 0.01 0.01 0.02 0.02 0.01 0.01 0.02 0.02 0.01 0.00 0.00 0.00 0.00 0.03 0.01 0.00 0.00 0.01 0.02 0.02 0.02 0.03 0.03 0.01 0.00 0.00 0.00 0.00 0.00 0.01 0.00 0.00 0.00 0.00 0.00 0.03 0.01 0.02 0.00 0.00 0.00 0.00 0.00 0.00 0.05 0.16 0.11 0.13 0.05 0.09 0.08 0.31 0.02 0.19 0.03 0.27 0.19 1.52 0.30 0.56 0.49 0.43 0.42 0.80 0.48 0.45 0.30 0.29 0.57 0.40 0.71 0.63 0.43 0.86
0.01 0.00 0.00 0.00 0.00 0.00 0.00 0.04 0.01 0.02 0.02 0.03 0.00 0.05 0.01 0.01 0.02 0.03 0.04 0.05 0.06 0.05 0.04 0.02 0.03 0.02 0.01 0.02 0.02 0.03 0.02 0.01 0.02 0.04 0.02 0.03 0.06 0.02 0.01 0.00 0.00 0.00 0.00 0.00 0.00 0.00 0.00 0.01 0.02 0.00 0.00 0.00 0.00 0.00 0.00 0.00 0.00 0.05 0.01 0.00 0.01 0.03 0.07 0.12 0.21 0.21 0.15 0.24 0.13 0.18 0.30 1.21 0.67 0.39 0.61 0.40 0.45 0.49 0.76 0.76 0.63 0.54 0.51 0.37 0.28 0.46 0.46 0.51
0.00 0.00 0.00 0.00 0.00 0.00 0.01 0.06 0.02 0.01 0.02 0.01 0.02 0.03 0.01 0.03 0.02 0.05 0.08 0.10 0.03 0.01 0.05 0.03 0.02 0.06 0.17 0.01 0.00 0.09 0.01 0.13 0.02 0.03 0.03 0.04 0.06 0.02 0.02 0.01 0.00 0.01 0.01 0.00 0.01 0.00 0.05 0.12 0.02 0.12 0.08 0.09 0.04 0.00 0.01 0.00 0.00 0.07 0.06 0.15 0.02 0.00 0.01 0.01 0.00 0.04 0.09 0.14 0.20 0.14 0.49 1.23 0.98 0.53 0.41 0.56 0.32 0.30 0.41 0.53 0.67 0.48 0.36 0.24 0.44 0.52 0.74 0.77
0.02 0.00 0.00 0.00 0.00 0.00 0.02 0.04 0.06 0.07 0.03 0.06 0.03 0.03 0.06 0.07 0.06 0.03 0.04 0.09 0.06 0.08 0.04 0.15 0.11 0.11 0.02 0.02 0.01 0.01 0.03 0.08 0.10 0.03 0.04 0.06 0.05 0.03 0.02 0.02 0.01 0.01 0.01 0.00 0.00 0.00 0.02 0.08 0.05 0.15 0.11 0.37 0.39 0.55 0.47 0.30 0.07 0.10 0.07 0.05 0.04 0.02 0.07 0.05 0.08 0.16 0.09 0.12 0.04 0.18 0.79 0.57 0.48 0.33 0.21 0.37 0.50 0.22 0.45 0.55 0.56 0.72 0.40 0.35 0.48 0.54 0.65 0.83
0.01 0.21 0.09 0.00 0.00 0.04 0.02 0.01 0.02 0.05 0.21 0.14 0.06 0.07 0.04 0.14 0.09 0.09 0.05 0.05 0.02 0.09 0.08 0.17 0.05 0.02 0.06 0.03 0.10 0.05 0.11 0.05 0.06 0.24 0.09 0.11 0.06 0.05 0.04 0.03 0.03 0.02 0.02 0.01 0.01 0.01 0.03 0.03 0.03 0.04 0.19 0.36 0.33 0.29 0.04 0.01 0.01 0.05 0.08 0.02 0.09 0.04 0.03 0.01 0.04 0.12 0.19 0.19 0.17 0.41 0.33 0.45 0.43 0.33 0.18 0.30 0.81 0.42 0.40 0.47 0.42 0.33 0.84 0.45 0.30 0.63 0.98 1.03
0.14 0.08 0.20 0.21 0.03 0.05 0.01 0.03 0.08 0.07 0.29 0.18 0.21 0.07 0.09 0.04 0.06 0.09 0.12 0.10 0.13 0.05 0.05 0.11 0.16 0.08 0.13 0.06 0.20 0.17 0.08 0.13 0.05 0.06 0.22 0.14 0.11 0.10 0.05 0.04 0.05 0.03 0.05 0.03 0.02 0.00 0.01 0.04 0.01 0.03 0.10 0.01 0.03 0.08 0.02 0.01 0.00 0.00 0.00 0.02 0.00 0.01 0.02 0.02 0.08 0.14 0.11 0.11 0.14 0.31 0.26 0.31 0.50 0.33 0.42 0.38 0.34 0.61 0.60 0.50 0.57 0.43 0.81 1.10 0.77 0.90 0.92 1.25
0.22 0.28 0.07 0.44 0.21 0.14 0.05 0.14 0.06 0.11 0.15 0.11 0.42 0.15 0.08 0.09 0.07 0.11 0.08 0.10 0.17 0.21 0.17 0.14 0.10 0.14 0.22 0.22 0.11 0.15 0.19 0.17 0.10 0.37 0.11 0.09 0.07 0.10 0.11 0.09 0.07 0.10 0.07 0.04 0.02 0.01 0.03 0.12 0.11 0.01 0.05 0.01 0.02 0.11 0.04 0.03 0.02 0.07 0.00 0.00 0.00 0.00 0.05 0.03 0.01 0.02 0.04 0.10 0.44 0.37 0.20 0.22 0.54 0.50 0.63 0.72 0.54 0.80 0.74 0.65 0.75 0.81 0.80 1.49 1.01 1.36 1.63 1.68
0.11 0.12 0.04 0.07 0.32 0.20 0.14 0.30 0.07 0.13 0.22 0.25 0.42 0.13 0.14 0.11 0.10 0.09 0.15 0.07 0.07 0.36 0.18 0.24 0.17 0.21 0.22 0.20 0.13 0.23 0.16 0.25 0.38 0.18 0.15 0.19 0.12 0.12 0.17 0.14 0.10 0.09 0.12 0.08 0.06 0.05 0.01 0.06 0.16 0.02 0.08 0.01 0.02 0.01 0.01 0.13 0.14 0.05 0.03 0.01 0.01 0.01 0.01 0.01 0.07 0.06 0.14 0.14 0.14 0.20 0.26 0.35 0.68 0.89 0.70 0.61 0.77 0.98 1.39 0.96 0.54 0.70 1.37 1.56 2.10 1.39 1.88 1.93
0.23 0.34 0.87 0.14 0.12 0.13 0.06 0.08 0.09 0.12 0.15 0.43 0.35 0.28 0.48 0.23 0.18 0.10 0.05 0.12 0.13 0.13 0.33 0.16 0.20 0.21 0.15 0.17 0.29 0.30 0.21 0.12 0.17 0.26 0.15 0.08 0.09 0.08 0.15 0.15 0.24 0.22 0.15 0.22 0.08 0.11 0.01 0.35 0.01 0.04 0.13 0.11 0.02 0.02 0.03 0.02 0.08 0.10 0.12 0.04 0.01 0.02 0.00 0.01 0.02 0.12 0.19 0.31 0.19 0.26 0.25 0.44 0.48 0.49 0.66 1.16 0.98 0.93 0.94 1.25 1.43 1.20 1.16 1.74 2.08 2.83 1.44 1.10
0.37 0.51 0.72 0.79 0.44 0.14 0.27 0.11 0.12 0.26 0.31 0.19 0.17 0.35 0.12 0.23 0.33 0.14 0.25 0.24 0.22 0.33 0.28 0.45 0.26 0.13 0.17 0.20 0.22 0.29 0.12 0.10 0.03 0.04 0.07 0.05 0.21 0.10 0.13 0.33 0.15 0.22 0.20 0.18 0.12 0.16 0.02 0.17 0.00 0.02 0.07 0.15 0.10 0.07 0.06 0.09 0.02 0.23 0.18 0.15 0.15 0.04 0.04 0.08 0.16 0.38 0.19 0.57 0.56 0.51 0.74 1.16 1.38 0.99 0.98 1.50 1.12 0.74 0.77 0.97 1.55 1.29 1.19 2.25 2.09 1.32 2.08 2.40
0.53 0.63 0.61 1.10 0.71 0.17 0.23 0.10 0.11 0.16 0.38 0.36 0.34 0.25 0.30 0.31 0.13 0.26 0.46 0.36 0.43 0.50 0.30 0.26 0.35 0.15 0.26 0.24 0.27 0.22 0.12 0.06 0.02 0.00 0.02 0.02 0.01 0.01 0.03 0.06 0.07 0.10 0.23 0.20 0.17 0.17 0.12 0.15 0.08 0.10 0.08 0.16 0.12 0.15 0.23 0.09 0.06 0.10 0.10 0.10 0.16 0.12 0.26 0.25 0.10 0.09 0.19 0.27 0.74 0.83 1.03 0.81 0.91 1.06 0.79 0.83 0.57 0.28 0.46 0.62 1.31 2.35 1.97 2.69 2.44 1.57 1.49 1.91